Location: Brompton
(51.4000°N, 0.5333°E)
Time: 10:48:49
(UTC+00:00)

Cosmos 1898 Rocket - Pass Details

Date: 02 October 2021
Orbit: 752 x 784 km, 74.0° (Epoch: 17 October)

Event Time Altitude Azimuth Distance (km) Brightness Sun altitude
Rises 20:24:38 0° 227° (SW) 3,214 6.9 -26.6°
Reaches altitude 10° 20:27:08 10° 235° (SW) 2,297 6.2 -27.0°
Maximum altitude 20:32:02 40° 305° (NW) 1,129 4.8 -27.6°
Drops below altitude 10° 20:37:00 10° 14° (NNE) 2,331 6.2 -28.3°
Sets 20:39:33 0° 22° (NNE) 3,267 6.9 -28.6°
